Powrót do katalogu

STARLINK-36120

AktywnyŁącznośćVLEO
NORAD 67016·PAYLOAD·🇺🇸 United States

Wystrzelony Dec 10, 2025 z Vandenberg Space Force Base

Loading…

Następne Przeloty (najbliższe 24 godziny)

TLE

ŚwieżeSource: CelesTrak SupGP

Epoka: Sep 15, 2026, 02:37 UTC

1 67016C 25293P   26258.10951389  .00065747  00000+0  55102-2 0  2581
2 67016  70.0016 336.8851 0003604 267.3349 339.3761 14.98293725    10

Śledź STARLINK-36120 w czasie rzeczywistym z AllMySat

Download on the App Store